Location: Krasnoyarskiy Pitomnik
(51.1333°N, 71.6167°E)
Time: 02:29:19
(UTC+00:00)

Vanguard 2 - Visible Passes

Search period start: 22 April 2024 00:00
Search period end: 02 May 2024 00:00
Orbit: 552 x 2917 km, 32.9° (Epoch: 21 April)

Date Brightness Start Highest point End Pass type
(mag) Time Alt. Az. Time Alt. Az. Time Alt. Az.
22 Apr 10.7 19:50:14 28° SSE 19:51:52 28° SSE 20:05:15 10° ESE visible
22 Apr 10.7 21:51:20 21° SW 22:01:17 40° S 22:16:34 10° ESE visible
23 Apr 11.3 18:02:15 12° ESE 18:02:15 12° ESE 18:04:55 10° ESE visible
23 Apr 10.5 20:03:20 30° S 20:05:55 32° SSE 20:20:02 10° ESE visible
23 Apr 10.7 22:04:26 18° SW 22:15:33 40° S 22:30:54 10° ESE visible
24 Apr 11.1 18:15:21 17° ESE 18:15:21 17° ESE 18:21:00 10° ESE visible
24 Apr 10.4 20:16:26 31° S 20:20:01 34° SSE 20:34:40 10° ESE visible
24 Apr 10.7 22:17:32 15° WSW 22:29:48 40° S 22:45:07 10° ESE visible
25 Apr 10.9 18:28:25 21° SE 18:28:25 21° SE 18:36:23 10° ESE visible
25 Apr 10.4 20:29:31 31° SSW 20:34:10 37° SSE 20:49:10 10° ESE visible
25 Apr 10.7 22:30:36 11° WSW 22:44:03 38° S 22:59:13 10° SE visible
26 Apr 10.7 18:41:30 25° SE 18:41:30 25° SE 18:51:24 10° ESE visible
26 Apr 10.4 20:42:35 29° SSW 20:48:22 38° S 21:03:33 10° ESE visible
26 Apr 10.7 22:44:33 10° WSW 22:58:16 36° SSW 23:13:09 10° SE visible
27 Apr 10.5 18:54:35 28° SSE 18:54:35 28° SSE 19:06:10 10° ESE visible
27 Apr 10.4 20:55:40 26° SW 21:02:35 38° S 21:17:49 10° ESE visible
27 Apr 10.8 22:59:07 10° WSW 23:12:26 34° SSW 23:26:53 10° SE visible
28 Apr 10.3 19:07:41 31° SSE 19:07:41 31° SSE 19:20:46 10° ESE visible
28 Apr 10.5 21:08:46 23° SW 21:16:47 38° S 21:31:58 10° ESE visible
28 Apr 10.9 23:13:48 10° WSW 23:26:33 30° SSW 23:40:23 10° SSE visible
29 Apr 11.0 17:19:42 13° ESE 17:19:42 13° ESE 17:21:48 10° ESE visible
29 Apr 10.2 19:20:48 33° S 19:21:41 33° SSE 19:35:13 10° ESE visible
29 Apr 10.5 21:21:54 19° WSW 21:31:00 37° S 21:45:59 10° SE visible
30 Apr 10.8 17:32:53 16° ESE 17:32:53 16° ESE 17:36:54 10° ESE visible
30 Apr 10.1 19:33:58 33° S 19:35:49 34° S 19:49:33 10° ESE visible
30 Apr 10.5 21:35:05 15° WSW 21:45:13 34° S 21:59:49 10° SE visible
01 May 10.6 17:46:07 20° SE 17:46:07 20° SE 17:51:42 10° ESE visible
01 May 10.1 19:47:14 32° SSW 19:50:00 35° S 20:03:46 10° ESE visible
01 May 10.6 21:48:20 11° WSW 21:59:23 32° SSW 22:13:27 10° SE visible
